BCS62A EBBR-EDDP

Flight info

Callsign BCS62A
Flight time 0h 53m
Altitude 35000
Route SOPOK Y863 ROPUV L607 EMGOD DCT AMASI DCT MASEK T278 TAMEB T955 GOXLI GOXLI1R
Aircraft A333/H-SDE3GHIJ2J3J5M1RVWXY/LB2D1

Departure

Time 2026-05-05 23:36
Airport Brussels Airport (EBBR)

Arrival

Time 2026-05-06 00:29
Airport Leipzig/Halle Airport (EDDP)
Time Latitude Longitude Altitude Speed Heading
2026-05-05 23:06 50.90288 4.45839 142 ft 0 kts 335°
2026-05-05 23:26 50.90284 4.45843 142 ft 4 kts 335°
2026-05-05 23:27 50.90259 4.45860 142 ft 4 kts 335°
2026-05-05 23:27 50.90240 4.45874 142 ft 3 kts 335°
2026-05-05 23:27 50.90224 4.45894 142 ft 4 kts 279°
2026-05-05 23:27 50.90227 4.45932 141 ft 3 kts 245°
2026-05-05 23:28 50.90238 4.45970 141 ft 4 kts 245°
2026-05-05 23:28 50.90241 4.45982 141 ft 0 kts 245°
2026-05-05 23:31 50.90241 4.45979 141 ft 2 kts 245°
2026-05-05 23:32 50.90222 4.45913 142 ft 9 kts 245°
2026-05-05 23:32 50.90198 4.45831 142 ft 8 kts 245°
2026-05-05 23:32 50.90177 4.45760 143 ft 8 kts 245°
2026-05-05 23:32 50.90151 4.45670 144 ft 9 kts 245°
2026-05-05 23:33 50.90128 4.45589 144 ft 8 kts 245°
2026-05-05 23:33 50.90101 4.45528 145 ft 6 kts 214°
2026-05-05 23:33 50.90071 4.45531 145 ft 4 kts 163°
2026-05-05 23:33 50.90049 4.45544 145 ft 3 kts 159°
2026-05-05 23:34 50.90015 4.45566 145 ft 9 kts 156°
2026-05-05 23:34 50.89949 4.45615 145 ft 9 kts 153°
2026-05-05 23:34 50.89927 4.45669 144 ft 5 kts 94°
2026-05-05 23:34 50.89936 4.45720 144 ft 0 kts 68°
2026-05-05 23:35 50.89940 4.45733 144 ft 3 kts 65°
2026-05-05 23:35 50.89957 4.45795 144 ft 14 kts 66°
2026-05-05 23:35 50.90069 4.46185 140 ft 70 kts 65°
2026-05-05 23:35 50.90356 4.47179 128 ft 127 kts 65°
2026-05-05 23:36 50.90787 4.48683 158 ft 174 kts 64°
2026-05-05 23:36 50.91312 4.50457 854 ft 174 kts 62°
2026-05-05 23:36 50.91831 4.52135 1906 ft 169 kts 61°
2026-05-05 23:36 50.92363 4.53877 2560 ft 181 kts 64°
2026-05-05 23:37 50.92906 4.55800 2982 ft 203 kts 65°
2026-05-05 23:37 50.93513 4.57974 3268 ft 229 kts 64°
2026-05-05 23:37 50.94150 4.60395 3840 ft 243 kts 70°
2026-05-05 23:37 50.94508 4.63048 4615 ft 251 kts 79°
2026-05-05 23:38 50.94729 4.65835 5344 ft 259 kts 82°
2026-05-05 23:38 50.94922 4.68684 6219 ft 260 kts 82°
2026-05-05 23:38 50.95114 4.71542 7081 ft 262 kts 82°
2026-05-05 23:38 50.95298 4.74461 7830 ft 270 kts 85°
2026-05-05 23:39 50.95125 4.77455 8617 ft 279 kts 104°
2026-05-05 23:39 50.94180 4.80163 9445 ft 287 kts 130°
2026-05-05 23:39 50.92705 4.82356 10144 ft 297 kts 137°
2026-05-05 23:39 50.91051 4.84504 10487 ft 318 kts 139°
2026-05-05 23:40 50.89230 4.86676 10807 ft 339 kts 146°
2026-05-05 23:40 50.86986 4.88133 11097 ft 361 kts 167°
2026-05-05 23:40 50.84454 4.88691 11591 ft 373 kts 173°
2026-05-05 23:40 50.81838 4.89068 12259 ft 379 kts 174°
2026-05-05 23:41 50.79203 4.89436 13035 ft 382 kts 173°
2026-05-05 23:41 50.76539 4.89824 13786 ft 384 kts 174°
2026-05-05 23:41 50.73900 4.90220 14731 ft 378 kts 174°
2026-05-05 23:41 50.71292 4.90724 15494 ft 379 kts 168°
2026-05-05 23:42 50.68777 4.92036 16029 ft 385 kts 153°
2026-05-05 23:42 50.66585 4.94524 16570 ft 392 kts 135°
2026-05-05 23:42 50.64976 4.97986 17192 ft 397 kts 118°
2026-05-05 23:42 50.63945 5.02059 17821 ft 402 kts 109°
2026-05-05 23:43 50.63087 5.06275 18323 ft 407 kts 108°
2026-05-05 23:43 50.62236 5.10552 18825 ft 411 kts 109°
2026-05-05 23:43 50.61369 5.14863 19326 ft 414 kts 109°
2026-05-05 23:43 50.60487 5.19197 19835 ft 418 kts 109°
2026-05-05 23:44 50.59748 5.23642 20339 ft 422 kts 102°
2026-05-05 23:44 50.59474 5.28260 20851 ft 426 kts 92°
2026-05-05 23:44 50.59531 5.32932 21371 ft 429 kts 88°
2026-05-05 23:44 50.59727 5.37630 21852 ft 432 kts 86°
2026-05-05 23:45 50.59987 5.42358 22342 ft 434 kts 85°
2026-05-05 23:45 50.60266 5.47106 22856 ft 437 kts 85°
2026-05-05 23:45 50.60538 5.51884 23329 ft 440 kts 85°
2026-05-05 23:45 50.60797 5.56688 23759 ft 442 kts 86°
2026-05-05 23:46 50.61038 5.61453 24196 ft 443 kts 86°
2026-05-05 23:46 50.61273 5.66282 24718 ft 442 kts 86°
2026-05-05 23:46 50.61501 5.71117 25144 ft 444 kts 86°
2026-05-05 23:46 50.61723 5.75969 25560 ft 446 kts 86°
2026-05-05 23:47 50.61943 5.80865 25931 ft 449 kts 87°
2026-05-05 23:47 50.62160 5.85772 26351 ft 450 kts 87°
2026-05-05 23:47 50.62378 5.90709 26730 ft 453 kts 87°
2026-05-05 23:47 50.62595 5.95662 27148 ft 455 kts 87°
2026-05-05 23:48 50.62813 6.00635 27539 ft 457 kts 87°
2026-05-05 23:48 50.63030 6.05643 27924 ft 459 kts 87°
2026-05-05 23:48 50.63245 6.10661 28339 ft 460 kts 87°
2026-05-05 23:48 50.63459 6.15692 28775 ft 461 kts 88°
2026-05-05 23:49 50.63672 6.20751 29154 ft 463 kts 88°
2026-05-05 23:49 50.63883 6.25820 29511 ft 465 kts 88°
2026-05-05 23:49 50.64093 6.30918 29892 ft 467 kts 88°
2026-05-05 23:49 50.64301 6.36015 30346 ft 465 kts 88°
2026-05-05 23:50 50.64505 6.41085 30812 ft 463 kts 88°
2026-05-05 23:50 50.64707 6.46138 31264 ft 462 kts 88°
2026-05-05 23:50 50.64906 6.51181 31700 ft 460 kts 88°
2026-05-05 23:50 50.65103 6.56216 32104 ft 460 kts 88°
2026-05-05 23:51 50.65297 6.61238 32507 ft 460 kts 88°
2026-05-05 23:51 50.65488 6.66267 32863 ft 459 kts 88°
2026-05-05 23:51 50.65677 6.71296 33260 ft 459 kts 89°
2026-05-05 23:51 50.65864 6.76310 33662 ft 458 kts 89°
2026-05-05 23:52 50.66048 6.81315 33995 ft 458 kts 89°
2026-05-05 23:52 50.66231 6.86338 34262 ft 459 kts 89°
2026-05-05 23:52 50.66412 6.91358 34470 ft 460 kts 89°
2026-05-05 23:52 50.66591 6.96408 34685 ft 462 kts 89°
2026-05-05 23:53 50.66943 7.06480 34805 ft 461 kts 89°
2026-05-05 23:53 50.67287 7.16515 34804 ft 457 kts 89°
2026-05-05 23:54 50.67618 7.26523 34805 ft 457 kts 89°
2026-05-05 23:54 50.67940 7.36520 34804 ft 457 kts 90°
2026-05-05 23:55 50.68250 7.46373 34806 ft 457 kts 90°
2026-05-05 23:55 50.68561 7.56532 34799 ft 457 kts 90°
2026-05-05 23:56 50.68859 7.66552 34791 ft 457 kts 90°
2026-05-05 23:56 50.69148 7.76564 34784 ft 457 kts 90°
2026-05-05 23:57 50.69427 7.86581 34779 ft 457 kts 90°
2026-05-05 23:57 50.69699 7.96608 34763 ft 457 kts 90°
2026-05-05 23:58 50.69963 8.06635 34774 ft 458 kts 90°
2026-05-05 23:58 50.70218 8.16689 34775 ft 458 kts 90°
2026-05-05 23:59 50.70463 8.26667 34776 ft 458 kts 90°
2026-05-05 23:59 50.70701 8.36712 34778 ft 458 kts 90°
2026-05-06 00:00 50.70931 8.46762 34786 ft 458 kts 90°
2026-05-06 00:00 50.71151 8.56800 34788 ft 458 kts 90°
2026-05-06 00:01 50.71364 8.66848 34783 ft 458 kts 90°
2026-05-06 00:01 50.71567 8.76885 34784 ft 458 kts 91°
2026-05-06 00:02 50.71762 8.86930 34784 ft 458 kts 91°
2026-05-06 00:02 50.71948 8.96994 34784 ft 458 kts 91°
2026-05-06 00:03 50.72126 9.07042 34781 ft 458 kts 91°
2026-05-06 00:03 50.72294 9.17079 34787 ft 458 kts 91°
2026-05-06 00:04 50.72454 9.27124 34739 ft 459 kts 91°
2026-05-06 00:04 50.72531 9.32159 34510 ft 459 kts 91°
2026-05-06 00:04 50.72606 9.37187 34272 ft 458 kts 91°
2026-05-06 00:05 50.72749 9.47213 33791 ft 456 kts 91°
2026-05-06 00:05 50.72816 9.52148 33520 ft 455 kts 91°
2026-05-06 00:05 50.72881 9.57144 33145 ft 454 kts 91°
2026-05-06 00:06 50.73132 9.62123 32529 ft 454 kts 87°
2026-05-06 00:06 50.73449 9.67089 31821 ft 454 kts 86°
2026-05-06 00:06 50.73794 9.72049 31043 ft 457 kts 86°
2026-05-06 00:06 50.74158 9.77049 30220 ft 459 kts 85°
2026-05-06 00:07 50.74528 9.82073 29349 ft 461 kts 85°
2026-05-06 00:07 50.74898 9.87070 28783 ft 456 kts 85°
2026-05-06 00:07 50.75261 9.92017 28226 ft 451 kts 85°
2026-05-06 00:07 50.75616 9.96912 27647 ft 446 kts 85°
2026-05-06 00:08 50.75959 10.01701 27085 ft 443 kts 85°
2026-05-06 00:08 50.76299 10.06510 26515 ft 440 kts 85°
2026-05-06 00:08 50.76635 10.11301 25947 ft 437 kts 85°
2026-05-06 00:08 50.76966 10.16050 25386 ft 434 kts 85°
2026-05-06 00:09 50.77292 10.20782 24824 ft 432 kts 85°
2026-05-06 00:09 50.77616 10.25495 24254 ft 430 kts 85°
2026-05-06 00:09 50.77937 10.30183 23690 ft 429 kts 85°
2026-05-06 00:09 50.78255 10.34854 23066 ft 428 kts 85°
2026-05-06 00:10 50.78571 10.39521 22437 ft 425 kts 85°
2026-05-06 00:10 50.78883 10.44153 21873 ft 423 kts 86°
2026-05-06 00:10 50.79191 10.48755 21291 ft 420 kts 86°
2026-05-06 00:10 50.79495 10.53341 20721 ft 418 kts 86°
2026-05-06 00:11 50.79795 10.57897 20138 ft 416 kts 86°
2026-05-06 00:11 50.80093 10.62443 19560 ft 415 kts 86°
2026-05-06 00:11 50.80388 10.66967 18992 ft 413 kts 85°
2026-05-06 00:11 50.80884 10.71441 18417 ft 414 kts 75°
2026-05-06 00:12 50.81948 10.75651 17830 ft 413 kts 64°
2026-05-06 00:12 50.83310 10.79645 17226 ft 412 kts 61°
2026-05-06 00:12 50.84734 10.83563 16647 ft 409 kts 60°
2026-05-06 00:12 50.86165 10.87444 16076 ft 406 kts 60°
2026-05-06 00:13 50.87584 10.91282 15520 ft 403 kts 60°
2026-05-06 00:13 50.88996 10.95099 14980 ft 401 kts 60°
2026-05-06 00:13 50.90407 10.98915 14494 ft 402 kts 60°
2026-05-06 00:13 50.91802 11.02694 14020 ft 402 kts 60°
2026-05-06 00:14 50.93208 11.06511 13545 ft 400 kts 60°
2026-05-06 00:14 50.94603 11.10301 13019 ft 397 kts 60°
2026-05-06 00:14 50.95988 11.14072 12482 ft 394 kts 60°
2026-05-06 00:14 50.97362 11.17815 11969 ft 391 kts 60°
2026-05-06 00:15 50.98723 11.21528 11467 ft 387 kts 59°
2026-05-06 00:15 51.00068 11.25200 10972 ft 382 kts 60°
2026-05-06 00:15 51.01389 11.28814 10482 ft 373 kts 60°
2026-05-06 00:15 51.02672 11.32334 10031 ft 364 kts 60°
2026-05-06 00:16 51.03919 11.35754 9682 ft 352 kts 61°
2026-05-06 00:16 51.04725 11.37956 9418 ft 345 kts 62°
2026-05-06 00:16 51.05909 11.41211 9023 ft 334 kts 61°
2026-05-06 00:16 51.07055 11.44355 8742 ft 323 kts 60°
2026-05-06 00:17 51.08153 11.47402 8476 ft 312 kts 60°
2026-05-06 00:17 51.09208 11.50314 8221 ft 303 kts 60°
2026-05-06 00:17 51.10276 11.53198 7953 ft 294 kts 55°
2026-05-06 00:17 51.11634 11.55543 7699 ft 285 kts 33°
2026-05-06 00:18 51.13395 11.56850 7443 ft 275 kts 16°
2026-05-06 00:18 51.15208 11.57696 7190 ft 267 kts 13°
2026-05-06 00:18 51.16980 11.58457 6950 ft 261 kts 13°
2026-05-06 00:18 51.18728 11.59205 6700 ft 258 kts 14°
2026-05-06 00:19 51.20430 11.59943 6451 ft 256 kts 13°
2026-05-06 00:19 51.22142 11.60692 6217 ft 254 kts 13°
2026-05-06 00:19 51.23834 11.61438 5988 ft 250 kts 17°
2026-05-06 00:19 51.25488 11.62165 5751 ft 242 kts 17°
2026-05-06 00:20 51.27091 11.62872 5485 ft 236 kts 18°
2026-05-06 00:20 51.28654 11.63565 5239 ft 231 kts 18°
2026-05-06 00:20 51.30175 11.64243 5084 ft 223 kts 18°
2026-05-06 00:20 51.31661 11.64903 4924 ft 220 kts 18°
2026-05-06 00:21 51.33134 11.65563 4712 ft 219 kts 19°
2026-05-06 00:21 51.34603 11.66220 4608 ft 219 kts 18°
2026-05-06 00:21 51.36063 11.66900 4478 ft 217 kts 22°
2026-05-06 00:21 51.37383 11.68012 4338 ft 214 kts 40°
2026-05-06 00:22 51.38337 11.69787 4225 ft 209 kts 61°
2026-05-06 00:22 51.38791 11.71926 4094 ft 209 kts 78°
2026-05-06 00:22 51.38985 11.74294 3965 ft 210 kts 83°
2026-05-06 00:22 51.39099 11.76633 3854 ft 212 kts 84°
2026-05-06 00:23 51.39205 11.78982 3788 ft 211 kts 84°
2026-05-06 00:23 51.39311 11.81276 3636 ft 206 kts 84°
2026-05-06 00:23 51.39417 11.83511 3517 ft 196 kts 84°
2026-05-06 00:23 51.39520 11.85630 3385 ft 185 kts 84°
2026-05-06 00:24 51.39618 11.87627 3256 ft 176 kts 84°
2026-05-06 00:24 51.39710 11.89537 3124 ft 169 kts 84°
2026-05-06 00:24 51.39797 11.91376 3003 ft 164 kts 84°
2026-05-06 00:24 51.39882 11.93188 2990 ft 165 kts 84°
2026-05-06 00:25 51.39967 11.95021 2997 ft 165 kts 84°
2026-05-06 00:25 51.40052 11.96856 2989 ft 165 kts 84°
2026-05-06 00:25 51.40137 11.98681 2986 ft 164 kts 84°
2026-05-06 00:25 51.40222 12.00509 2938 ft 164 kts 84°
2026-05-06 00:26 51.40308 12.02325 2731 ft 162 kts 83°
2026-05-06 00:26 51.40391 12.04093 2496 ft 155 kts 82°
2026-05-06 00:26 51.40470 12.05762 2293 ft 145 kts 85°
2026-05-06 00:26 51.40544 12.07305 2123 ft 133 kts 86°
2026-05-06 00:27 51.40612 12.08758 1939 ft 130 kts 86°
2026-05-06 00:27 51.40679 12.10208 1773 ft 130 kts 85°
2026-05-06 00:27 51.40747 12.11661 1590 ft 131 kts 85°
2026-05-06 00:27 51.40815 12.13118 1417 ft 131 kts 85°
2026-05-06 00:28 51.40880 12.14575 1245 ft 131 kts 85°
2026-05-06 00:28 51.40944 12.16014 1052 ft 130 kts 85°
2026-05-06 00:28 51.41032 12.17452 845 ft 129 kts 83°
2026-05-06 00:28 51.41107 12.18885 643 ft 129 kts 86°
2026-05-06 00:29 51.41156 12.20292 516 ft 128 kts 85°
2026-05-06 00:29 51.41221 12.21678 460 ft 118 kts 86°
2026-05-06 00:29 51.41266 12.22741 469 ft 68 kts 85°
2026-05-06 00:29 51.41292 12.23284 469 ft 41 kts 85°
2026-05-06 00:30 51.41310 12.23671 477 ft 25 kts 86°
2026-05-06 00:30 51.41301 12.23926 472 ft 22 kts 102°
2026-05-06 00:30 51.41257 12.24122 472 ft 18 kts 115°
2026-05-06 00:30 51.41222 12.24238 470 ft 6 kts 117°
2026-05-06 00:31 51.41206 12.24286 476 ft 2 kts 117°
2026-05-06 00:31 51.41204 12.24293 476 ft 0 kts 117°
2026-05-06 00:31 51.41201 12.24301 476 ft 1 kts 117°
2026-05-06 00:31 51.41197 12.24314 474 ft 1 kts 117°
2026-05-06 00:32 51.41193 12.24327 475 ft 1 kts 117°
2026-05-06 00:32 51.41184 12.24350 470 ft 4 kts 122°
2026-05-06 00:32 51.41156 12.24385 469 ft 7 kts 156°
2026-05-06 00:32 51.41097 12.24447 473 ft 12 kts 115°
2026-05-06 00:33 51.41094 12.24575 471 ft 11 kts 91°
2026-05-06 00:33 51.41044 12.24648 473 ft 11 kts 169°
2026-05-06 00:33 51.40957 12.24659 466 ft 13 kts 176°
2026-05-06 00:33 51.40907 12.24640 467 ft 6 kts 228°
2026-05-06 00:34 51.40895 12.24569 470 ft 7 kts 263°
2026-05-06 00:34 51.40893 12.24511 470 ft 0 kts 265°